Location: Unspecified
(0.0000°N, 0.0000°E)
Time: 05:25:31
(UTC+00:00)

deb Delta 104 - Pass Details

Date: 06 March 2026
Orbit: 1339 x 1584 km, 100.8° (Epoch: 15 April)

Event Time Altitude Azimuth Distance (km) Brightness Sun altitude
Exits shadow 21:45:19 18° 209° (SSW) 3,194 ? -53.2°
Drops below altitude 10° 21:47:06 10° 206° (SSW) 3,778 ? -53.6°
Sets 21:50:04 0° 203° (SSW) 4,773 ? -54.4°
